{"data":{"norad_id":65293,"epoch":"2026-05-25T03:23:58.932384Z","epoch_age_seconds":76887,"freshness":"FRESH","line1":"1 65293U 25184W   26145.14165431 -.00001926  00000+0 -12949-3 0  9995","line2":"2 65293  97.4502 197.6390 0000437  58.4917 301.6353 15.05642952 42801","mean_motion":15.05642952,"eccentricity":4.37e-5,"inclination_deg":97.4502,"raan_deg":197.639,"arg_perigee_deg":58.4917,"mean_anomaly_deg":301.6353,"bstar":-0.00012949,"rev_number":4280,"period_min":95.640204610741,"perigee_km":549.23003399561,"apogee_km":549.83551233378,"semimajor_km":6927.6697731647,"source":"CELESTRAK","updated_at":"2026-05-25T13:38:20.755395Z"}}